Location: Bruderhein
(53.8035°N, 112.9265°W)
Time: 07:12:17
(UTC+00:00)

TIGRISAT - Pass Details

Date: 04 April 2023
Orbit: 599 x 682 km, 97.7° (Epoch: 03 June)

Event Time Altitude Azimuth Distance (km) Brightness Sun altitude
Rises 02:59:28 0° 5° (N) 3,060 ? -7.7°
Reaches altitude 10° 03:02:12 10° 349° (N) 2,143 ? -8.1°
Maximum altitude 03:05:33 20° 304° (WNW) 1,578 ? -8.5°
Drops below altitude 10° 03:08:54 10° 258° (WSW) 2,128 ? -9.0°
Sets 03:11:37 0° 242° (WSW) 3,033 ? -9.4°
